User: anonymous   Login
Location: Alsip
(41.6689°N, 87.7387°W)
Time: 22:36:38
(UTC+00:00)
Language:

Spot 4 - Orbit

View from above orbital plane
View from above orbital plane
View from above satellite
View from above satellite

Ground track
Ground track

The orbit data is extracted from the following two-line orbital elements,

1 25260U 98017A   20270.34397267  .00000017  00000-0  14797-4 0  9992
2 25260  98.2918 359.0036 0012930 185.5882 174.5172 14.53635081175750
Epoch (UTC): 26 September 2020 08:15:19
Eccentricity: 0.0012930
inclination: 98.2918°
perigee height: 704 km
apogee height: 723 km
right ascension of ascending node: 359.0036°
argument of perigee: 185.5882°
revolutions per day: 14.53635081
mean anomaly at epoch: 174.5172°
orbit number at epoch: 17575

The dashed part of the orbit path shows where the satellite is in the earth's shadow,  

DLR